Time,TemperatureF,DewpointF,PressureIn,WindDirection,WindDirectionDegrees,WindSpeedMPH,WindSpeedGustMPH,Humidity,HourlyPrecipIn,Conditions,Clouds,dailyrainin,SolarRadiationWatts/m^2,SoftwareType,DateUTC
2013-03-17 00:12:00,46.0,15.0,-100.00,SW,223,2.0,19.0,28,0.00,,,0.00,0.000000,,2013-03-17 07:12:00,
2013-03-17 00:22:00,46.0,15.0,-100.00,SW,223,2.0,19.0,28,0.00,,,0.00,0.000000,,2013-03-17 07:22:00,
2013-03-17 00:32:00,46.0,15.0,-100.00,SW,223,2.0,19.0,28,0.00,,,0.00,0.000000,,2013-03-17 07:32:00,
2013-03-17 00:42:00,46.0,15.0,-100.00,SW,223,2.0,19.0,28,0.00,,,0.00,0.000000,,2013-03-17 07:42:00,
2013-03-17 01:12:00,45.0,15.0,-100.00,WSW,241,1.0,7.0,30,0.00,,,0.00,0.000000,,2013-03-17 08:12:00,
2013-03-17 01:22:00,45.0,15.0,-100.00,WSW,241,1.0,7.0,30,0.00,,,0.00,0.000000,,2013-03-17 08:22:00,
2013-03-17 01:32:00,45.0,15.0,-100.00,WSW,241,1.0,7.0,30,0.00,,,0.00,0.000000,,2013-03-17 08:32:00,
2013-03-17 01:42:00,45.0,15.0,-100.00,WSW,241,1.0,7.0,30,0.00,,,0.00,0.000000,,2013-03-17 08:42:00,
2013-03-17 02:12:00,42.0,16.0,-100.00,SW,215,4.0,8.0,34,0.00,,,0.00,0.000000,,2013-03-17 09:12:00,
2013-03-17 02:22:00,42.0,16.0,-100.00,SW,215,4.0,8.0,34,0.00,,,0.00,0.000000,,2013-03-17 09:22:00,
2013-03-17 02:32:00,42.0,16.0,-100.00,SW,215,4.0,8.0,34,0.00,,,0.00,0.000000,,2013-03-17 09:32:00,
2013-03-17 02:42:00,42.0,16.0,-100.00,SW,215,4.0,8.0,34,0.00,,,0.00,0.000000,,2013-03-17 09:42:00,
2013-03-17 03:13:00,39.0,14.0,-100.00,SSE,166,1.0,7.0,36,0.00,,,0.00,0.000000,,2013-03-17 10:13:00,
2013-03-17 03:23:00,39.0,14.0,-100.00,SSE,166,1.0,7.0,36,0.00,,,0.00,0.000000,,2013-03-17 10:23:00,
2013-03-17 03:33:00,39.0,14.0,-100.00,SSE,166,1.0,7.0,36,0.00,,,0.00,0.000000,,2013-03-17 10:33:00,
2013-03-17 03:42:00,39.0,14.0,-100.00,SSE,166,1.0,7.0,36,0.00,,,0.00,0.000000,,2013-03-17 10:42:00,
2013-03-17 04:12:00,39.0,14.0,-100.00,SW,221,5.0,10.0,35,0.00,,,0.00,0.000000,,2013-03-17 11:12:00,
2013-03-17 04:22:00,39.0,14.0,-100.00,SW,221,5.0,10.0,35,0.00,,,0.00,0.000000,,2013-03-17 11:22:00,
2013-03-17 04:32:00,39.0,14.0,-100.00,SW,221,5.0,10.0,35,0.00,,,0.00,0.000000,,2013-03-17 11:32:00,
2013-03-17 04:42:00,39.0,14.0,-100.00,SW,221,5.0,10.0,35,0.00,,,0.00,0.000000,,2013-03-17 11:42:00,
2013-03-17 05:12:00,39.0,14.0,-100.00,East,94,0.0,6.0,36,0.00,,,0.00,0.000000,,2013-03-17 12:12:00,
2013-03-17 05:22:00,39.0,14.0,-100.00,East,94,0.0,6.0,36,0.00,,,0.00,0.000000,,2013-03-17 12:22:00,
2013-03-17 05:32:00,39.0,14.0,-100.00,East,94,0.0,6.0,36,0.00,,,0.00,0.000000,,2013-03-17 12:32:00,
2013-03-17 05:42:00,39.0,14.0,-100.00,East,94,0.0,6.0,36,0.00,,,0.00,0.000000,,2013-03-17 12:42:00,
2013-03-17 06:12:00,34.0,13.0,-100.00,SSW,210,0.0,4.0,41,0.00,,,0.00,0.000000,,2013-03-17 13:12:00,
2013-03-17 06:22:00,34.0,13.0,-100.00,SSW,210,0.0,4.0,41,0.00,,,0.00,0.000000,,2013-03-17 13:22:00,
2013-03-17 06:32:00,34.0,13.0,-100.00,SSW,210,0.0,4.0,41,0.00,,,0.00,0.000000,,2013-03-17 13:32:00,
2013-03-17 06:42:00,34.0,13.0,-100.00,SSW,210,0.0,4.0,41,0.00,,,0.00,0.000000,,2013-03-17 13:42:00,
2013-03-17 07:12:00,31.0,12.0,-100.00,WSW,245,0.0,5.0,45,0.00,,,0.00,0.000000,,2013-03-17 14:12:00,
2013-03-17 07:22:00,31.0,12.0,-100.00,WSW,245,0.0,5.0,45,0.00,,,0.00,0.000000,,2013-03-17 14:22:00,
2013-03-17 07:32:00,31.0,12.0,-100.00,WSW,245,0.0,5.0,45,0.00,,,0.00,0.000000,,2013-03-17 14:32:00,
2013-03-17 07:42:00,31.0,12.0,-100.00,WSW,245,0.0,5.0,45,0.00,,,0.00,0.000000,,2013-03-17 14:42:00,
2013-03-17 08:12:00,35.0,12.0,-100.00,West,267,0.0,4.0,38,0.00,,,0.00,38.000000,,2013-03-17 15:12:00,
2013-03-17 08:23:00,35.0,12.0,-100.00,West,267,0.0,4.0,38,0.00,,,0.00,38.000000,,2013-03-17 15:23:00,
2013-03-17 08:32:00,35.0,12.0,-100.00,West,267,0.0,4.0,38,0.00,,,0.00,38.000000,,2013-03-17 15:32:00,
2013-03-17 08:42:00,35.0,12.0,-100.00,West,267,0.0,4.0,38,0.00,,,0.00,38.000000,,2013-03-17 15:42:00,
2013-03-17 09:12:00,48.0,16.0,-100.00,SW,231,1.0,7.0,27,0.00,,,0.00,268.000000,,2013-03-17 16:12:00,
2013-03-17 09:22:00,48.0,16.0,-100.00,SW,231,1.0,7.0,27,0.00,,,0.00,268.000000,,2013-03-17 16:22:00,
2013-03-17 09:33:00,48.0,16.0,-100.00,SW,231,1.0,7.0,27,0.00,,,0.00,268.000000,,2013-03-17 16:33:00,
2013-03-17 09:42:00,48.0,16.0,-100.00,SW,231,1.0,7.0,27,0.00,,,0.00,268.000000,,2013-03-17 16:42:00,
2013-03-17 10:12:00,53.0,15.0,-100.00,WSW,251,6.0,11.0,22,0.00,,,-99.99,511.000000,,2013-03-17 17:12:00,
2013-03-17 10:22:00,53.0,15.0,-100.00,WSW,251,6.0,11.0,22,0.00,,,-99.99,511.000000,,2013-03-17 17:22:00,
2013-03-17 10:33:00,53.0,15.0,-100.00,WSW,251,6.0,11.0,22,0.00,,,-99.99,511.000000,,2013-03-17 17:33:00,
2013-03-17 10:42:00,53.0,15.0,-100.00,WSW,251,6.0,11.0,22,0.00,,,-99.99,511.000000,,2013-03-17 17:42:00,
2013-03-17 11:12:00,56.0,9.0,-100.00,WNW,299,5.0,11.0,15,0.00,,,-99.99,732.000000,,2013-03-17 18:12:00,
2013-03-17 11:22:00,56.0,9.0,-100.00,WNW,299,5.0,11.0,15,0.00,,,-99.99,732.000000,,2013-03-17 18:22:00,
2013-03-17 11:42:00,56.0,9.0,-100.00,WNW,299,5.0,11.0,15,0.00,,,-99.99,732.000000,,2013-03-17 18:42:00,
2013-03-17 12:12:00,59.0,8.0,-100.00,WNW,284,8.0,15.0,13,0.00,,,0.00,943.000000,,2013-03-17 19:12:00,
2013-03-17 12:22:00,59.0,8.0,-100.00,WNW,284,8.0,15.0,13,0.00,,,0.00,943.000000,,2013-03-17 19:22:00,
2013-03-17 12:32:00,59.0,8.0,-100.00,WNW,284,8.0,15.0,13,0.00,,,0.00,943.000000,,2013-03-17 19:32:00,
2013-03-17 12:41:00,59.0,8.0,-100.00,WNW,284,8.0,15.0,13,0.00,,,0.00,943.000000,,2013-03-17 19:41:00,
2013-03-17 13:12:00,61.0,8.0,-100.00,WNW,303,8.0,19.0,12,0.00,,,0.00,1040.000000,,2013-03-17 20:12:00,
2013-03-17 13:22:00,61.0,8.0,-100.00,WNW,303,8.0,19.0,12,0.00,,,0.00,1040.000000,,2013-03-17 20:22:00,
2013-03-17 13:32:00,61.0,8.0,-100.00,WNW,303,8.0,19.0,12,0.00,,,0.00,1040.000000,,2013-03-17 20:32:00,
2013-03-17 13:42:00,61.0,8.0,-100.00,WNW,303,8.0,19.0,12,0.00,,,0.00,1040.000000,,2013-03-17 20:42:00,
2013-03-17 14:12:00,61.0,6.0,-100.00,NW,324,10.0,17.0,11,0.00,,,0.00,1064.000000,,2013-03-17 21:12:00,
2013-03-17 14:22:00,61.0,6.0,-100.00,NW,324,10.0,17.0,11,0.00,,,0.00,1064.000000,,2013-03-17 21:22:00,
2013-03-17 14:33:00,61.0,6.0,-100.00,NW,324,10.0,17.0,11,0.00,,,0.00,1064.000000,,2013-03-17 21:33:00,
2013-03-17 14:42:00,61.0,6.0,-100.00,NW,324,10.0,17.0,11,0.00,,,0.00,1064.000000,,2013-03-17 21:42:00,
2013-03-17 15:12:00,64.0,4.0,-100.00,NW,322,8.0,18.0,9,0.00,,,0.00,992.000000,,2013-03-17 22:12:00,
2013-03-17 15:23:00,64.0,4.0,-100.00,NW,322,8.0,18.0,9,0.00,,,0.00,992.000000,,2013-03-17 22:23:00,
2013-03-17 15:33:00,64.0,4.0,-100.00,NW,322,8.0,18.0,9,0.00,,,0.00,992.000000,,2013-03-17 22:33:00,
2013-03-17 15:42:00,64.0,4.0,-100.00,NW,322,8.0,18.0,9,0.00,,,0.00,992.000000,,2013-03-17 22:42:00,
2013-03-17 16:12:00,65.0,7.0,-100.00,NW,311,7.0,19.0,10,0.00,,,0.00,875.000000,,2013-03-17 23:12:00,
2013-03-17 16:22:00,65.0,7.0,-100.00,NW,311,7.0,19.0,10,0.00,,,0.00,875.000000,,2013-03-17 23:22:00,
2013-03-17 16:32:00,65.0,7.0,-100.00,NW,311,7.0,19.0,10,0.00,,,0.00,875.000000,,2013-03-17 23:32:00,
2013-03-17 16:42:00,65.0,7.0,-100.00,NW,311,7.0,19.0,10,0.00,,,0.00,875.000000,,2013-03-17 23:42:00,
2013-03-17 17:12:00,62.0,7.0,-100.00,NNE,15,14.0,21.0,11,0.00,,,0.00,648.000000,,2013-03-18 00:12:00,
2013-03-17 17:22:00,62.0,7.0,-100.00,NNE,15,14.0,21.0,11,0.00,,,0.00,648.000000,,2013-03-18 00:22:00,
2013-03-17 17:32:00,62.0,7.0,-100.00,NNE,15,14.0,21.0,11,0.00,,,0.00,648.000000,,2013-03-18 00:32:00,
2013-03-17 17:42:00,62.0,7.0,-100.00,NNE,15,14.0,21.0,11,0.00,,,0.00,648.000000,,2013-03-18 00:42:00,
2013-03-17 18:12:00,59.0,5.0,-100.00,North,9,14.0,21.0,11,0.00,,,0.00,387.000000,,2013-03-18 01:12:00,
2013-03-17 18:22:00,59.0,5.0,-100.00,North,9,14.0,21.0,11,0.00,,,0.00,387.000000,,2013-03-18 01:22:00,
2013-03-17 18:32:00,59.0,5.0,-100.00,North,9,14.0,21.0,11,0.00,,,0.00,387.000000,,2013-03-18 01:32:00,
2013-03-17 18:42:00,59.0,5.0,-100.00,North,9,14.0,21.0,11,0.00,,,0.00,387.000000,,2013-03-18 01:42:00,
2013-03-17 19:12:00,57.0,5.0,-100.00,North,349,12.0,20.0,12,0.00,,,0.00,123.000000,,2013-03-18 02:12:00,
2013-03-17 19:22:00,57.0,5.0,-100.00,North,349,12.0,20.0,12,0.00,,,0.00,123.000000,,2013-03-18 02:22:00,
2013-03-17 19:32:00,57.0,5.0,-100.00,North,349,12.0,20.0,12,0.00,,,0.00,123.000000,,2013-03-18 02:32:00,
2013-03-17 19:42:00,57.0,5.0,-100.00,North,349,12.0,20.0,12,0.00,,,0.00,123.000000,,2013-03-18 02:42:00,
2013-03-17 20:11:00,51.0,5.0,-100.00,North,8,2.0,16.0,15,0.00,,,0.00,4.000000,,2013-03-18 03:11:00,
2013-03-17 20:22:00,51.0,5.0,-100.00,North,8,2.0,16.0,15,0.00,,,0.00,4.000000,,2013-03-18 03:22:00,
2013-03-17 20:32:00,51.0,5.0,-100.00,North,8,2.0,16.0,15,0.00,,,0.00,4.000000,,2013-03-18 03:32:00,
2013-03-17 20:42:00,51.0,5.0,-100.00,North,8,2.0,16.0,15,0.00,,,0.00,4.000000,,2013-03-18 03:42:00,
2013-03-17 21:13:00,46.0,5.0,-100.00,NE,43,0.0,7.0,18,0.00,,,0.00,0.000000,,2013-03-18 04:13:00,
2013-03-17 21:22:00,46.0,5.0,-100.00,NE,43,0.0,7.0,18,0.00,,,0.00,0.000000,,2013-03-18 04:22:00,
2013-03-17 21:33:00,46.0,5.0,-100.00,NE,43,0.0,7.0,18,0.00,,,0.00,0.000000,,2013-03-18 04:33:00,
2013-03-17 21:42:00,46.0,5.0,-100.00,NE,43,0.0,7.0,18,0.00,,,0.00,0.000000,,2013-03-18 04:42:00,
2013-03-17 22:12:00,40.0,4.0,-100.00,WNW,293,0.0,5.0,22,0.00,,,0.00,0.000000,,2013-03-18 05:12:00,
2013-03-17 22:22:00,40.0,4.0,-100.00,WNW,293,0.0,5.0,22,0.00,,,0.00,0.000000,,2013-03-18 05:22:00,
2013-03-17 22:42:00,40.0,4.0,-100.00,WNW,293,0.0,5.0,22,0.00,,,0.00,0.000000,,2013-03-18 05:42:00,
2013-03-17 23:12:00,44.0,7.0,-100.00,WSW,250,3.0,6.0,21,0.00,,,0.00,0.000000,,2013-03-18 06:12:00,
2013-03-17 23:22:00,44.0,7.0,-100.00,WSW,250,3.0,6.0,21,0.00,,,0.00,0.000000,,2013-03-18 06:22:00,
2013-03-17 23:32:00,44.0,7.0,-100.00,WSW,250,3.0,6.0,21,0.00,,,0.00,0.000000,,2013-03-18 06:32:00,
2013-03-17 23:42:00,44.0,7.0,-100.00,WSW,250,3.0,6.0,21,0.00,,,0.00,0.000000,,2013-03-18 06:42:00,